sat.trackr.live / text

‹ back to catalog

SITRO-AIS 39

NORAD 61778 · 2024-199AV

PAYLOAD ACTIVE UNKNOWN

§ Identity

Operator
Country
CIS
Launch date
2024-11-04
Launch site
VOSTO
Launch vehicle
Mass (kg)
RCS (m²)

External: N2YO · Heavens-Above · Gunter

§ Orbital elements

Epoch: 2026-09-22T22:21:58.787424Z

Period
91.83 min
Inclination
97.2692°
Eccentricity
0.0002101
Mean motion
15.68172346 rev/d
Perigee alt
362.7 km
Apogee alt
365.5 km
Semi-major
6,742.3 km
B*
5.6628e-4
RAAN
144.5352°
Arg perigee
276.6678°
Mean anomaly
83.4345°
Rev number
14,968

§ Raw data

SITRO-AIS 391 61778U 24199AV  26265.93193041  .00063301  00000+0  56628-3 0  99972 61778  97.2692 144.5352 0002101 276.6678  83.4345 15.68172346149684

JSON: /api/v1/satellites/61778 · /tle

For live sub-satellite position, see the globe view (requires WebGL).

§ Visibility from observer

Set your observer location to see the next 7 days of passes ≥ 10°. The values pass through the URL so the page stays shareable.

No JS? Fill the form by hand. The geolocation button needs JavaScript.

§ Radio — SatNOGS DB

ModeDescriptionDownlinkUplink
GMSK USP Mode U - GMSK2k4 - USP 401.065 MHz

1 transmitter · refreshed weekly from db.satnogs.org